{"data":{"norad_id":51732,"epoch":"2026-09-20T04:24:27.714240Z","epoch_age_seconds":75734,"freshness":"FRESH","line1":"1 51732U 22016U   26263.18365410 -.00000549  00000+0 -51080-5 0  9994","line2":"2 51732  53.1592 151.0294 0001484  82.5040 277.6131 15.34399814254277","mean_motion":15.34399814,"eccentricity":0.0001484,"inclination_deg":53.1592,"raan_deg":151.0294,"arg_perigee_deg":82.504,"mean_anomaly_deg":277.6131,"bstar":-5.108e-6,"rev_number":25427,"period_min":93.847769457563,"perigee_km":461.68861226467,"apogee_km":463.71897381205,"semimajor_km":6840.8407930384,"source":"CELESTRAK","updated_at":"2026-09-20T09:00:39.929512Z"}}